Location: Oso Ridge
(35.0450°N, 108.0864°W)
Time: 10:01:54
(UTC-06:00)

Amateur Radio Satellites - All Passes

Search period start: 29 June 2017 09:31
Search period end: 30 June 2017 09:31
Location: Oso Ridge, 35.0450°N, 108.0864°W

Satellite Date Start Highest point End Downlink Frequencies (MHz)
Time Altitude Azimuth
M-CUBED/EXP-1 PRIME 29 Jun 09:33:13 09:36:14 35° 70° (ENE) 09:39:15 437.505
AAUSAT CUBESAT 2 29 Jun 09:34:58 09:39:02 62° 284° (WNW) 09:43:06 437.432
AO-73 29 Jun 09:49:49 09:54:13 87° 98° (E) 09:58:28 145.935
FO-29 29 Jun 09:55:15 10:01:14 59° 72° (ENE) 10:08:03 435.910
TIGRISAT 29 Jun 10:05:09 10:09:30 43° 73° (ENE) 10:13:56 435.000
Oscar 11 29 Jun 10:11:48 10:16:04 68° 285° (WNW) 10:20:19 .
PRISM 29 Jun 10:16:04 10:20:03 62° 75° (ENE) 10:24:04 437.425
HO-68 29 Jun 10:16:52 10:22:00 22° 299° (WNW) 10:27:08 435.675
EO-88 29 Jun 10:19:10 10:21:47 19° 95° (E) 10:24:23 145.990 - 145.960
CUBEBUG 2 29 Jun 10:19:30 10:21:52 14° 294° (WNW) 10:24:11 437.445
DELFI C3 29 Jun 10:22:56 10:26:34 35° 98° (E) 10:30:13 145.870
ZACube-1 29 Jun 10:27:58 10:31:47 29° 289° (WNW) 10:35:30 437.345
PCSat 29 Jun 10:42:58 10:47:25 27° 107° (ESE) 10:51:54 145.827
UWE-3 29 Jun 10:44:39 10:46:22 12° 295° (WNW) 10:48:05 435.000/436.395/437.385
UNISAT 6 29 Jun 10:48:23 10:52:54 56° 260° (W) 10:57:31 437.425
YUBILEINY 29 Jun 10:55:36 11:02:51 30° 276° (W) 11:10:04 435.215
QB50P2 29 Jun 11:00:04 11:00:25 10° 65° (ENE) 11:00:46 145.880/145.840
JUGNU 29 Jun 11:10:17 11:12:32 12° 166° (SSE) 11:14:47 437.505
EO-79 29 Jun 11:20:25 11:23:08 17° 68° (ENE) 11:25:53 145.935-145.965
DUCHIFAT 1 29 Jun 11:29:06 11:31:49 17° 68° (ENE) 11:34:32 145.980
ESTCUBE 1 29 Jun 11:35:52 11:38:09 14° 93° (E) 11:40:25 437.505/2401.250
NANOSAT C BR1 29 Jun 11:39:13 11:42:41 25° 70° (ENE) 11:46:09 145.865
FO-29 29 Jun 11:42:34 11:46:50 19° 270° (W) 11:51:29 435.910
TIGRISAT 29 Jun 11:43:36 11:46:21 16° 267° (W) 11:49:08 435.000
AIST 2D 29 Jun 11:49:20 11:52:53 88° 77° (ENE) 11:56:26 435.315
EO-88 29 Jun 11:52:34 11:55:21 21° 289° (WNW) 11:58:07 145.990 - 145.960
DELFI C3 29 Jun 11:58:56 12:01:00 14° 292° (WNW) 12:03:04 145.870
LO-87 29 Jun 12:00:06 12:03:38 47° 100° (E) 12:07:08 145.935 - 145.965
POLYITAN 1 29 Jun 12:20:13 12:24:29 88° 78° (ENE) 12:28:48 437.675
BUGSAT 1 29 Jun 12:21:12 12:24:06 19° 68° (ENE) 12:27:03 437.445
PCSat 29 Jun 12:25:40 12:30:37 36° 303° (WNW) 12:35:36 145.827
QB50P2 29 Jun 12:31:25 12:35:37 61° 259° (W) 12:39:52 145.880/145.840
SPROUT 29 Jun 12:41:30 12:44:29 18° 94° (E) 12:47:27 437.525
Gurwin Techsat 1B 29 Jun 12:48:27 12:48:48 10° 61° (ENE) 12:49:10 435.225
VELOX 1 29 Jun 12:53:32 12:57:04 23° 96° (E) 13:00:34 145.980
EO-79 29 Jun 12:54:42 12:58:35 34° 262° (W) 13:02:30 145.935-145.965
ISS 29 Jun 12:54:46 12:55:14 10° 24° (NNE) 12:55:42 437.550
Oscar 19 29 Jun 12:55:26 12:59:09 21° 67° (ENE) 13:02:53 437.125/150
JUGNU 29 Jun 12:56:56 13:00:47 18° 177° (S) 13:04:39 437.505
DUCHIFAT 1 29 Jun 13:03:19 13:07:10 34° 262° (W) 13:11:03 145.980
ESTCUBE 1 29 Jun 13:10:52 13:15:08 44° 287° (WNW) 13:19:23 437.505/2401.250
NANOSAT C BR1 29 Jun 13:14:56 13:18:17 23° 264° (W) 13:21:40 145.865
Tancredo 1 29 Jun 13:17:10 13:19:42 23° 35° (NE) 13:22:13 437.200
SO-50 29 Jun 13:38:50 13:43:24 86° 119° (ESE) 13:47:57 436.795
BUGSAT 1 29 Jun 13:55:35 13:59:13 29° 263° (W) 14:02:54 437.445
AO-7 29 Jun 14:07:56 14:13:10 19° 55° (NE) 14:18:25 .
50 SAT 29 Jun 14:16:04 14:19:27 67° 284° (WNW) 14:22:51 437.505
SPROUT 29 Jun 14:16:35 14:20:24 31° 288° (WNW) 14:24:11 437.525
Gurwin Techsat 1B 29 Jun 14:22:37 14:27:56 89° 255° (WSW) 14:33:17 435.225
ISS 29 Jun 14:29:01 14:32:17 61° 41° (NE) 14:35:32 437.550
VELOX 1 29 Jun 14:29:41 14:33:25 27° 290° (WNW) 14:37:09 145.980
Oscar 19 29 Jun 14:33:18 14:38:09 41° 261° (W) 14:43:00 437.125/150
DX 1 29 Jun 14:34:04 14:38:26 78° 285° (WNW) 14:42:48 434.975-435.025
UKube-1 29 Jun 14:41:52 14:46:13 84° 102° (ESE) 14:50:33 .
JUGNU 29 Jun 14:45:27 14:49:05 17° 187° (S) 14:52:43 437.505
SRMSAT 29 Jun 14:50:39 14:54:10 16° 172° (S) 14:57:42 437.500
Tancredo 1 29 Jun 14:52:40 14:55:12 24° 229° (SW) 14:57:42 437.200
ITAMSAT 1 29 Jun 15:20:33 15:25:21 39° 71° (ENE) 15:30:10 435.822/435.867
SO-50 29 Jun 15:23:14 15:24:27 11° 316° (NW) 15:25:40 436.795
AO-7 29 Jun 15:56:28 16:04:49 89° 260° (W) 16:13:13 .
ITUPSAT 1 29 Jun 16:09:00 16:13:46 62° 101° (ESE) 16:18:28 437.325
BEESAT 29 Jun 16:15:51 16:20:38 76° 102° (ESE) 16:25:23 436.000
SRMSAT 29 Jun 16:38:41 16:42:37 18° 182° (S) 16:46:33 437.500
MOZHAYETS 4 29 Jun 16:43:39 16:48:14 79° 283° (WNW) 16:52:45
ITAMSAT 1 29 Jun 17:01:00 17:04:53 21° 265° (W) 17:08:48 435.822/435.867
XW-2D 29 Jun 17:32:27 17:33:53 12° 68° (ENE) 17:35:18 145.860 - 145.880
CUBESAT XI-V 29 Jun 17:36:49 17:41:25 68° 102° (ESE) 17:45:59 437.345
XW-2B 29 Jun 17:40:48 17:42:57 15° 69° (ENE) 17:45:06 145.730 - 145.750
KKS-1 29 Jun 17:43:52 17:48:14 50° 100° (E) 17:52:35 437.445
LilacSat-2 29 Jun 17:45:08 17:47:48 18° 70° (ENE) 17:50:27 437.200
ITUPSAT 1 29 Jun 17:49:05 17:51:00 12° 296° (WNW) 17:52:54 437.325
AO-7 29 Jun 17:54:11 17:58:26 15° 268° (W) 18:02:44 .
XW-2C 29 Jun 17:55:33 17:58:35 23° 71° (ENE) 18:01:37 145.795 - 145.815
KAITUO 1B 29 Jun 17:58:25 18:01:04 18° 70° (ENE) 18:03:43 145.475/437.950
STARS 29 Jun 18:00:47 18:04:42 30° 98° (E) 18:08:36 437.465
DOVE 4 29 Jun 18:02:16 18:06:24 73° 76° (ENE) 18:10:43 437.250
NUDT-PHONESAT 29 Jun 18:26:18 18:29:50 41° 74° (ENE) 18:33:24 437.300
SRMSAT 29 Jun 18:28:22 18:31:03 13° 192° (SSW) 18:33:44 437.500
CUTE-I 29 Jun 18:36:00 18:41:15 68° 75° (ENE) 18:46:35 437.470
CUTE 1.7 + AOD 2 29 Jun 18:38:48 18:40:07 11° 66° (ENE) 18:41:28 437.475
RS-15 29 Jun 18:51:44 18:59:51 21° 99° (E) 19:08:02 29.354- 29.394
HO-68 29 Jun 18:53:08 18:59:29 35° 65° (ENE) 19:05:50 435.675
XW-2F 29 Jun 18:56:30 19:00:15 55° 260° (W) 19:04:00 145.980 - 146.000
XW-2D 29 Jun 19:04:03 19:07:39 39° 261° (W) 19:11:16 145.860 - 145.880
XW-2B 29 Jun 19:13:24 19:16:50 31° 262° (W) 19:20:16 145.730 - 145.750
AO-85 29 Jun 19:14:33 19:18:15 32° 114° (ESE) 19:21:50 145.980
CUBESAT XI-V 29 Jun 19:17:27 19:18:09 10° 296° (WNW) 19:18:51 437.345
LilacSat-2 29 Jun 19:18:38 19:21:52 25° 264° (W) 19:25:06 437.200
KKS-1 29 Jun 19:22:10 19:24:19 13° 295° (WNW) 19:26:29 437.445
XW-2C 29 Jun 19:29:51 19:32:40 19° 265° (W) 19:35:30 145.795 - 145.815
KAITUO 1B 29 Jun 19:31:49 19:34:53 23° 264° (W) 19:37:57 145.475/437.950
PCSat 29 Jun 19:35:05 19:37:27 13° 47° (NE) 19:39:49 145.827
CUBEBUG 2 29 Jun 19:35:51 19:39:48 29° 70° (ENE) 19:43:51 437.445
XW-2A 29 Jun 19:35:57 19:39:06 34° 74° (ENE) 19:42:15 145.665 - 145.685
STARS 29 Jun 19:37:32 19:40:49 21° 292° (WNW) 19:44:05 437.465
BEESAT 3 29 Jun 19:40:05 19:43:44 37° 113° (ESE) 19:47:26 437.485
SEEDS 29 Jun 19:44:50 19:48:48 42° 74° (ENE) 19:52:46 437.485
ZACube-1 29 Jun 19:46:16 19:47:55 12° 65° (ENE) 19:49:36 437.345
UWE-3 29 Jun 19:59:26 20:03:28 31° 71° (ENE) 20:07:33 435.000/436.395/437.385
STRAND 1 29 Jun 20:04:11 20:08:54 35° 98° (E) 20:13:33 437.568
O/OREOS (USA 219) 29 Jun 20:05:07 20:07:53 16° 100° (E) 20:10:39 437.305
NO-84 29 Jun 20:08:41 20:12:14 54° 129° (SE) 20:16:07 435.350 FM
CUTE 1.7 + AOD 2 29 Jun 20:11:19 20:15:27 52° 260° (W) 20:19:36 437.475
CUTE-I 29 Jun 20:19:42 20:21:44 12° 269° (W) 20:23:46 437.470
AAUSAT CUBESAT 2 29 Jun 20:21:24 20:25:23 51° 75° (ENE) 20:29:22 437.432
HO-68 29 Jun 20:40:23 20:47:01 40° 261° (W) 20:53:41 435.675
AO-73 29 Jun 20:41:21 20:45:40 44° 74° (ENE) 20:50:01 145.935
BEESAT 2 29 Jun 20:49:39 20:53:36 81° 116° (ESE) 20:57:38 435.950
AO-85 29 Jun 20:55:50 20:58:40 18° 308° (NW) 21:01:28 145.980
RS-15 29 Jun 20:58:32 21:10:39 88° 298° (WNW) 21:23:08 29.354- 29.394
Oscar 11 29 Jun 21:02:50 21:07:05 58° 75° (ENE) 21:11:21 .
DELFI C3 29 Jun 21:06:37 21:08:32 13° 68° (ENE) 21:10:28 145.870
FO-29 29 Jun 21:12:10 21:14:11 11° 86° (E) 21:16:11 435.910
CUBEBUG 2 29 Jun 21:12:38 21:16:20 24° 265° (W) 21:20:08 437.445
PCSat 29 Jun 21:16:07 21:21:35 89° 239° (WSW) 21:26:59 145.827
BEESAT 3 29 Jun 21:18:47 21:21:26 17° 310° (NW) 21:24:06 437.485
ZACube-1 29 Jun 21:19:08 21:23:38 60° 260° (W) 21:28:11 437.345
SEEDS 29 Jun 21:22:51 21:24:39 12° 268° (W) 21:26:26 437.485
UWE-3 29 Jun 21:36:19 21:39:52 22° 266° (W) 21:43:29 435.000/436.395/437.385
O/OREOS (USA 219) 29 Jun 21:42:41 21:46:55 38° 294° (WNW) 21:51:10 437.305
STRAND 1 29 Jun 21:43:48 21:47:49 24° 293° (WNW) 21:51:50 437.568
NO-84 29 Jun 21:47:21 21:50:06 18° 327° (NNW) 21:53:01 435.350 FM
YUBILEINY 29 Jun 21:54:12 22:02:52 66° 92° (E) 22:11:35 435.215
TIGRISAT 29 Jun 22:02:19 22:03:49 11° 91° (E) 22:05:19 435.000
PRISM 29 Jun 22:02:58 22:03:59 11° 93° (E) 22:05:00 437.425
SO-50 29 Jun 22:13:23 22:17:24 30° 54° (NE) 22:21:27 436.795
AO-73 29 Jun 22:19:30 22:22:04 15° 268° (W) 22:24:37 145.935
EO-88 29 Jun 22:25:51 22:29:31 86° 256° (WSW) 22:33:13 145.990 - 145.960
LO-87 29 Jun 22:34:55 22:36:16 12° 68° (ENE) 22:37:38 145.935 - 145.965
DELFI C3 29 Jun 22:39:21 22:42:58 36° 262° (W) 22:46:35 145.870
UNISAT 6 29 Jun 22:43:30 22:47:49 39° 98° (E) 22:52:00 437.425
M-CUBED/EXP-1 PRIME 29 Jun 22:47:17 22:51:09 53° 105° (ESE) 22:55:19 437.505
FO-29 29 Jun 22:52:21 23:00:16 74° 102° (ESE) 23:07:47 435.910
RS-15 29 Jun 23:15:01 23:25:02 28° 322° (NW) 23:35:11 29.354- 29.394
PRISM 29 Jun 23:35:30 23:39:28 48° 286° (WNW) 23:43:26 437.425
TIGRISAT 29 Jun 23:36:20 23:40:49 55° 286° (WNW) 23:45:12 435.000
VELOX 1 29 Jun 23:48:47 23:51:05 14° 66° (ENE) 23:53:23 145.980
YUBILEINY 29 Jun 23:53:36 00:00:16 24° 290° (WNW) 00:07:01 435.215
SO-50 29 Jun 23:54:03 23:57:42 24° 249° (WSW) 00:01:21 436.795
LO-87 30 Jun 00:06:07 00:09:21 33° 262° (W) 00:12:37 145.935 - 145.965
ESTCUBE 1 30 Jun 00:06:31 00:11:00 75° 259° (W) 00:15:30 437.505/2401.250
POLYITAN 1 30 Jun 00:09:16 00:12:12 18° 94° (E) 00:15:07 437.675
QB50P2 30 Jun 00:19:50 00:23:28 27° 97° (E) 00:27:03 145.880/145.840
UNISAT 6 30 Jun 00:21:10 00:24:08 17° 293° (WNW) 00:27:04 437.425
M-CUBED/EXP-1 PRIME 30 Jun 00:24:01 00:25:14 11° 297° (WNW) 00:26:27 437.505
FO-29 30 Jun 00:38:46 00:44:23 22° 299° (WNW) 00:49:53 435.910
EO-79 30 Jun 00:42:08 00:46:15 45° 99° (E) 00:50:18 145.935-145.965
50 SAT 30 Jun 00:45:04 00:47:44 22° 71° (ENE) 00:50:23 437.505
DUCHIFAT 1 30 Jun 00:50:04 00:54:08 44° 99° (E) 00:58:09 145.980
AIST 2D 30 Jun 00:50:41 00:54:01 44° 285° (WNW) 00:57:19 435.315
NANOSAT C BR1 30 Jun 01:01:15 01:05:31 71° 102° (ESE) 01:09:42 145.865
SPROUT 30 Jun 01:05:46 01:09:59 64° 259° (W) 01:14:16 437.525
VELOX 1 30 Jun 01:22:56 01:27:06 44° 261° (W) 01:31:19 145.980
DX 1 30 Jun 01:26:02 01:30:15 57° 75° (ENE) 01:34:31 434.975-435.025
UKube-1 30 Jun 01:32:55 01:36:59 44° 73° (ENE) 01:41:05 .
RS-15 30 Jun 01:38:25 01:43:57 14° 358° (N) 01:49:27 29.354- 29.394
BUGSAT 1 30 Jun 01:39:52 01:43:59 47° 100° (E) 01:48:01 437.445
POLYITAN 1 30 Jun 01:44:14 01:48:00 31° 288° (WNW) 01:51:43 437.675
QB50P2 30 Jun 01:55:50 01:59:03 21° 291° (WNW) 02:02:16 145.880/145.840
50 SAT 30 Jun 02:18:29 02:20:27 15° 265° (W) 02:22:26 437.505
EO-79 30 Jun 02:19:33 02:21:33 13° 294° (WNW) 02:23:33 145.935-145.965
DUCHIFAT 1 30 Jun 02:27:21 02:29:22 13° 294° (WNW) 02:31:22 145.980
Gurwin Techsat 1B 30 Jun 02:42:16 02:47:24 47° 100° (E) 02:52:30 435.225
NO-84 30 Jun 02:45:46 02:48:19 15° 30° (NNE) 02:50:52 435.350 FM
Oscar 19 30 Jun 02:47:41 02:52:50 90° 91° (E) 02:57:57 437.125/150
UKube-1 30 Jun 03:11:17 03:13:11 13° 267° (W) 03:15:05 .
ITUPSAT 1 30 Jun 03:12:18 03:16:56 50° 73° (ENE) 03:21:35 437.325
BUGSAT 1 30 Jun 03:17:05 03:18:51 12° 294° (WNW) 03:20:37 437.445
BEESAT 30 Jun 03:18:43 03:23:25 60° 74° (ENE) 03:28:08 436.000
ITAMSAT 1 30 Jun 03:37:34 03:41:04 18° 94° (E) 03:44:33 435.822/435.867
MOZHAYETS 4 30 Jun 03:41:46 03:46:22 66° 75° (ENE) 03:50:58
AO-85 30 Jun 03:49:16 03:51:17 13° 49° (NE) 03:53:20 145.980
RS-15 30 Jun 03:53:39 04:03:10 25° 34° (NE) 04:12:19 29.354- 29.394
AO-7 30 Jun 04:02:15 04:09:54 38° 99° (E) 04:17:29 .
NO-84 30 Jun 04:22:06 04:26:30 83° 45° (NE) 04:30:46 435.350 FM
Gurwin Techsat 1B 30 Jun 04:23:17 04:26:56 19° 295° (WNW) 04:30:35 435.225
CUBESAT XI-V 30 Jun 04:36:41 04:41:05 44° 73° (ENE) 04:45:28 437.345
KKS-1 30 Jun 04:38:50 04:42:42 30° 71° (ENE) 04:46:35 437.445
ITUPSAT 1 30 Jun 04:52:25 04:54:58 14° 267° (W) 04:57:32 437.325
STARS 30 Jun 04:54:49 04:57:52 19° 68° (ENE) 05:00:57 437.465
BEESAT 30 Jun 04:59:55 05:01:31 11° 268° (W) 05:03:07 436.000
BEESAT 2 30 Jun 05:11:03 05:13:55 18° 51° (NE) 05:16:44 435.950
ITAMSAT 1 30 Jun 05:15:43 05:20:43 46° 288° (WNW) 05:25:40 435.822/435.867
AO-85 30 Jun 05:27:47 05:31:55 58° 244° (WSW) 05:36:22 145.980
BEESAT 3 30 Jun 05:36:48 05:40:48 77° 244° (WSW) 05:44:43 437.485
Tancredo 1 30 Jun 05:45:00 05:47:40 30° 132° (SE) 05:50:21 437.200
AO-7 30 Jun 05:54:51 06:02:37 44° 296° (WNW) 06:10:20 .
NO-84 30 Jun 06:02:56 06:03:27 10° 242° (WSW) 06:03:58 435.350 FM
DOVE 4 30 Jun 06:03:41 06:08:06 29° 96° (E) 06:12:36 437.250
RS-15 30 Jun 06:05:43 06:17:53 81° 60° (ENE) 06:29:20 29.354- 29.394
KKS-1 30 Jun 06:16:00 06:19:14 20° 265° (W) 06:22:30 437.445
CUBESAT XI-V 30 Jun 06:16:03 06:18:37 15° 267° (W) 06:21:10 437.345
O/OREOS (USA 219) 30 Jun 06:17:18 06:20:30 19° 61° (ENE) 06:23:40 437.305
STARS 30 Jun 06:30:00 06:33:56 33° 262° (W) 06:37:56 437.465
XW-2F 30 Jun 06:32:39 06:35:12 17° 95° (E) 06:37:44 145.980 - 146.000
XW-2D 30 Jun 06:39:59 06:43:04 24° 96° (E) 06:46:07 145.860 - 145.880
BEESAT 2 30 Jun 06:48:04 06:51:45 34° 247° (WSW) 06:55:23 435.950
XW-2B 30 Jun 06:48:55 06:52:16 30° 97° (E) 06:55:34 145.730 - 145.750
LilacSat-2 30 Jun 06:54:25 06:57:58 38° 99° (E) 07:01:29 437.200
CUTE-I 30 Jun 06:56:36 07:01:31 35° 98° (E) 07:06:24 437.470
XW-2C 30 Jun 07:04:25 07:08:06 50° 100° (E) 07:11:44 145.795 - 145.815
KAITUO 1B 30 Jun 07:05:27 07:08:55 37° 98° (E) 07:12:21 145.475/437.950
ISS 30 Jun 07:06:28 07:09:42 66° 319° (NW) 07:12:57 437.550
STRAND 1 30 Jun 07:16:49 07:21:29 36° 71° (ENE) 07:26:11 437.568
Tancredo 1 30 Jun 07:20:56 07:23:14 20° 327° (NNW) 07:25:34 437.200
NUDT-PHONESAT 30 Jun 07:33:17 07:36:59 85° 283° (WNW) 07:40:38 437.300
DOVE 4 30 Jun 07:41:17 07:45:38 29° 289° (WNW) 07:50:07 437.250
O/OREOS (USA 219) 30 Jun 07:55:55 07:59:56 34° 256° (WSW) 08:03:58 437.305
CUTE 1.7 + AOD 2 30 Jun 07:59:28 08:03:14 31° 97° (E) 08:06:58 437.475
XW-2F 30 Jun 08:06:15 08:09:16 23° 289° (WNW) 08:12:15 145.980 - 146.000
YUBILEINY 30 Jun 08:09:21 08:16:34 27° 71° (ENE) 08:23:42 435.215
HO-68 30 Jun 08:11:03 08:17:58 49° 101° (E) 08:24:49 435.675
XW-2D 30 Jun 08:14:30 08:17:02 18° 290° (WNW) 08:19:34 145.860 - 145.880
RS-15 30 Jun 08:20:19 08:28:48 24° 260° (W) 08:37:04 29.354- 29.394
XW-2B 30 Jun 08:24:06 08:26:09 14° 291° (WNW) 08:28:12 145.730 - 145.750
LilacSat-2 30 Jun 08:30:34 08:31:50 11° 293° (WNW) 08:33:05 437.200
XW-2A 30 Jun 08:33:08 08:36:29 59° 101° (E) 08:39:47 145.665 - 145.685
CUTE-I 30 Jun 08:37:00 08:41:20 25° 293° (WNW) 08:45:39 437.470
KAITUO 1B 30 Jun 08:41:23 08:42:31 11° 293° (WNW) 08:43:39 145.475/437.950
ISS 30 Jun 08:46:00 08:46:43 11° 336° (NNW) 08:47:26 437.550
Oscar 11 30 Jun 08:54:53 08:57:02 14° 93° (E) 08:59:10 .
STRAND 1 30 Jun 08:56:45 09:00:42 22° 265° (W) 09:04:40 437.568
FO-29 30 Jun 09:02:08 09:06:53 23° 62° (ENE) 09:12:03 435.910
CUBEBUG 2 30 Jun 09:05:43 09:10:22 84° 282° (WNW) 09:14:51 437.445
SEEDS 30 Jun 09:06:59 09:11:05 59° 284° (WNW) 09:15:10 437.485
ZACube-1 30 Jun 09:11:07 09:15:04 32° 97° (E) 09:18:53 437.345
